Starlink 2273

operational
NORAD ID: 47993 Int'l Des: 2021-024 Owner: SPXS Country: US Constellation: starlink
LEOCIRCULARSTARLINK_TYPE

Starlink 2273について

説明を読み込み中...

リアルタイム位置

3D地球を読み込み中...

次回通過

高度履歴

Altitude vs Time

uPlot chart will show altitude changes over time

軌道要素

1 47993U 21024S 25351.59051995 .00002972 00000-0 21829-3 0 9995
2 47993 53.0559 305.1768 0001424 87.5379 272.5773 15.06401014262747
Epoch: Dec 17, 2025 • Age: 6 hours

現在のステータス

高度 547.5 km
速度 7.59 km/s
衛星直下点 4.03°N, 88.18°W
打ち上げ日 Mar 24, 2021
運用期間 4.7 years
タイプ internet

技術仕様

分類 Payload
質量 260.00 kg
乾燥質量 248.00 kg
総質量 260.00 kg
長さ 0.20 m
直径 2.80 m
スパン 9.00 m
形状 Box + pan
製造者 SPXS
バスタイプ Starlink
フェーズステータス In Orbit
所有者/国 SPXS/US

大規模コンステレーション

Loading constellations...